EN

Hourly Weather Toro

Today, 19 April, Monday

Time Temperature Precipitation Wind Pressure Humidity
00:00 +19°C° 1 mm 0 mps 679 mmHg 98%
01:00 +21°C° 1 mm 1 mps 679 mmHg 98%
02:00 +21°C° 0.3 mm 1 mps 678 mmHg 98%
03:00 +21°C° 0.3 mm 1 mps 678 mmHg 98%
04:00 +19°C° 0.3 mm 0 mps 678 mmHg 98%
05:00 +19°C° 0 mm 0 mps 678 mmHg 98%
06:00 +19°C° 0 mm 0 mps 679 mmHg 97%
07:00 +19°C° 0 mm 0 mps 679 mmHg 96%
08:00 +21°C° 0 mm 0 mps 679 mmHg 88%
09:00 +23°C° 0 mm 0 mps 680 mmHg 80%
10:00 +24°C° 0 mm 0 mps 681 mmHg 71%
11:00 +27°C° 0.5 mm 1 mps 680 mmHg 71%
12:00 +27°C° 0.5 mm 1 mps 679 mmHg 71%
13:00 +28°C° 0.5 mm 1 mps 678 mmHg 71%
14:00 +27°C° 0.9 mm 1 mps 678 mmHg 73%
15:00 +27°C° 0.9 mm 1 mps 677 mmHg 75%
16:00 +27°C° 0.9 mm 1 mps 677 mmHg 77%
17:00 +25°C° 0.8 mm 1 mps 677 mmHg 83%
18:00 +24°C° 0.8 mm 1 mps 677 mmHg 88%
19:00 +22°C° 0.8 mm 1 mps 677 mmHg 94%
20:00 +22°C° 1.1 mm 1 mps 678 mmHg 94%
21:00 +22°C° 1.1 mm 1 mps 678 mmHg 95%
22:00 +22°C° 1.1 mm 1 mps 679 mmHg 95%
23:00 +19°C° 1 mm 0 mps 679 mmHg 96%

Tomorrow, 20 April, Tuesday

Time Temperature Precipitation Wind Pressure Humidity
00:00 +19°C° 1 mm 0 mps 678 mmHg 96%
01:00 +19°C° 1 mm 0 mps 678 mmHg 96%
02:00 +19°C° 0.5 mm 0 mps 678 mmHg 96%
03:00 +19°C° 0.5 mm 0 mps 678 mmHg 96%
04:00 +19°C° 0.5 mm 0 mps 678 mmHg 96%
05:00 +19°C° 0 mm 0 mps 678 mmHg 96%
06:00 +19°C° 0 mm 0 mps 679 mmHg 96%
07:00 +19°C° 0 mm 0 mps 679 mmHg 95%
08:00 +20°C° 0 mm 0 mps 679 mmHg 90%
09:00 +22°C° 0 mm 0 mps 679 mmHg 86%
10:00 +23°C° 0 mm 0 mps 680 mmHg 81%
11:00 +24°C° 0.3 mm 0 mps 679 mmHg 77%
12:00 +27°C° 0.3 mm 1 mps 679 mmHg 74%
13:00 +28°C° 0.3 mm 1 mps 678 mmHg 70%
14:00 +27°C° 0.5 mm 1 mps 678 mmHg 73%
15:00 +27°C° 0.5 mm 1 mps 677 mmHg 76%
16:00 +26°C° 0.5 mm 1 mps 677 mmHg 78%
17:00 +25°C° 1 mm 1 mps 677 mmHg 84%
18:00 +23°C° 1 mm 1 mps 677 mmHg 89%
19:00 +20°C° 1 mm 0 mps 678 mmHg 95%
20:00 +20°C° 0.6 mm 0 mps 678 mmHg 96%
21:00 +20°C° 0.6 mm 0 mps 679 mmHg 96%
22:00 +19°C° 0.6 mm 0 mps 679 mmHg 97%
23:00 +19°C° 0.7 mm 0 mps 679 mmHg 98%

Day after tomorrow, 21 April, Wednesday

Time Temperature Precipitation Wind Pressure Humidity
00:00 +19°C° 0.7 mm 0 mps 679 mmHg 98%
01:00 +19°C° 0.7 mm 0 mps 679 mmHg 98%
02:00 +19°C° 1.6 mm 0 mps 678 mmHg 98%
03:00 +19°C° 1.6 mm 0 mps 678 mmHg 98%
04:00 +19°C° 1.6 mm 0 mps 678 mmHg 98%
05:00 +19°C° 1.4 mm 0 mps 678 mmHg 98%
06:00 +19°C° 1.4 mm 0 mps 679 mmHg 98%
07:00 +19°C° 1.4 mm 0 mps 679 mmHg 98%
08:00 +19°C° 0.4 mm 0 mps 680 mmHg 96%
09:00 +20°C° 0.4 mm 0 mps 680 mmHg 95%
10:00 +20°C° 0.4 mm 0 mps 680 mmHg 93%
11:00 +21°C° 0.1 mm 0 mps 680 mmHg 89%
12:00 +22°C° 0.1 mm 0 mps 679 mmHg 85%
13:00 +25°C° 0.1 mm 1 mps 679 mmHg 81%
14:00 +25°C° 0.1 mm 1 mps 678 mmHg 80%
15:00 +26°C° 0.1 mm 1 mps 678 mmHg 78%
16:00 +26°C° 0.1 mm 1 mps 677 mmHg 76%
17:00 +25°C° 0.5 mm 1 mps 677 mmHg 82%
18:00 +23°C° 0.5 mm 1 mps 678 mmHg 88%
19:00 +20°C° 0.5 mm 0 mps 678 mmHg 94%
20:00 +20°C° 0.6 mm 0 mps 678 mmHg 94%
21:00 +19°C° 0.6 mm 0 mps 678 mmHg 94%
22:00 +19°C° 0.6 mm 0 mps 679 mmHg 95%
23:00 +19°C° 0.1 mm 0 mps 679 mmHg 95%

22 April, Thursday

Time Temperature Precipitation Wind Pressure Humidity
00:00 +18°C° 0.1 mm 0 mps 678 mmHg 96%
01:00 +18°C° 0.1 mm 0 mps 678 mmHg 96%
02:00 +18°C° 0.1 mm 0 mps 678 mmHg 97%
03:00 +18°C° 0.1 mm 0 mps 678 mmHg 97%
04:00 +18°C° 0.1 mm 0 mps 677 mmHg 97%
05:00 +18°C° 0 mm 0 mps 678 mmHg 97%
06:00 +19°C° 0 mm 0 mps 678 mmHg 96%
07:00 +19°C° 0 mm 0 mps 679 mmHg 96%
08:00 +21°C° 0 mm 0 mps 679 mmHg 88%
09:00 +22°C° 0 mm 0 mps 679 mmHg 81%
10:00 +24°C° 0 mm 0 mps 680 mmHg 74%
11:00 +27°C° 0.4 mm 1 mps 679 mmHg 71%
12:00 +28°C° 0.4 mm 1 mps 678 mmHg 69%
13:00 +29°C° 0.4 mm 1 mps 678 mmHg 66%
14:00 +28°C° 1 mm 1 mps 677 mmHg 72%
15:00 +27°C° 1 mm 1 mps 677 mmHg 78%
16:00 +25°C° 1 mm 1 mps 676 mmHg 84%
17:00 +24°C° 0.6 mm 1 mps 676 mmHg 87%
18:00 +23°C° 0.6 mm 1 mps 677 mmHg 91%
19:00 +22°C° 0.6 mm 1 mps 677 mmHg 95%
20:00 +22°C° 0.2 mm 1 mps 678 mmHg 96%
21:00 +20°C° 0.2 mm 0 mps 678 mmHg 96%
22:00 +20°C° 0.2 mm 0 mps 679 mmHg 96%
23:00 +19°C° 0 mm 0 mps 678 mmHg 96%

23 April, Friday

Time Temperature Precipitation Wind Pressure Humidity
00:00 +19°C° 0 mm 0 mps 678 mmHg 96%
01:00 +19°C° 0 mm 0 mps 678 mmHg 96%
02:00 +19°C° 0.1 mm 0 mps 678 mmHg 96%
03:00 +19°C° 0.1 mm 0 mps 678 mmHg 96%
04:00 +19°C° 0.1 mm 0 mps 678 mmHg 95%
05:00 +19°C° 0 mm 0 mps 678 mmHg 95%
06:00 +19°C° 0 mm 0 mps 678 mmHg 95%
07:00 +19°C° 0 mm 0 mps 679 mmHg 94%
08:00 +21°C° 0 mm 0 mps 679 mmHg 87%
09:00 +23°C° 0 mm 0 mps 679 mmHg 79%
10:00 +25°C° 0 mm 0 mps 680 mmHg 72%
11:00 +26°C° 0.2 mm 0 mps 679 mmHg 70%
12:00 +28°C° 0.2 mm 1 mps 678 mmHg 69%
13:00 +29°C° 0.2 mm 1 mps 678 mmHg 67%
14:00 +28°C° 0.6 mm 1 mps 677 mmHg 71%
15:00 +28°C° 0.6 mm 1 mps 676 mmHg 74%
16:00 +27°C° 0.6 mm 2 mps 676 mmHg 77%
17:00 +26°C° 0.8 mm 1 mps 676 mmHg 83%
18:00 +24°C° 0.8 mm 1 mps 676 mmHg 89%
19:00 +23°C° 0.8 mm 1 mps 677 mmHg 94%
20:00 +22°C° 0.1 mm 1 mps 677 mmHg 95%
21:00 +22°C° 0.1 mm 1 mps 677 mmHg 95%
22:00 +20°C° 0.1 mm 0 mps 678 mmHg 96%
23:00 +19°C° 0 mm 0 mps 677 mmHg 96%

24 April, Saturday

Time Temperature Precipitation Wind Pressure Humidity
00:00 +19°C° 0 mm 0 mps 677 mmHg 96%
01:00 +19°C° 0 mm 0 mps 677 mmHg 96%
02:00 +19°C° 0.2 mm 0 mps 677 mmHg 96%
03:00 +19°C° 0.2 mm 0 mps 677 mmHg 96%
04:00 +19°C° 0.2 mm 0 mps 677 mmHg 96%
05:00 +19°C° 0.3 mm 0 mps 677 mmHg 96%
06:00 +19°C° 0.3 mm 0 mps 678 mmHg 95%
07:00 +19°C° 0.3 mm 0 mps 678 mmHg 95%
08:00 +21°C° 0 mm 0 mps 678 mmHg 88%
09:00 +23°C° 0 mm 0 mps 679 mmHg 82%
10:00 +25°C° 0 mm 0 mps 679 mmHg 75%
11:00 +25°C° 0.2 mm 0 mps 678 mmHg 71%
12:00 +28°C° 0.2 mm 1 mps 678 mmHg 68%
13:00 +29°C° 0.2 mm 1 mps 677 mmHg 65%
14:00 +29°C° 0.6 mm 1 mps 676 mmHg 69%
15:00 +28°C° 0.6 mm 1 mps 676 mmHg 73%
16:00 +28°C° 0.6 mm 1 mps 675 mmHg 77%
17:00 +26°C° 0.6 mm 1 mps 676 mmHg 83%
18:00 +24°C° 0.6 mm 1 mps 676 mmHg 89%
19:00 +23°C° 0.6 mm 1 mps 676 mmHg 95%
20:00 +23°C° 0.4 mm 1 mps 677 mmHg 96%
21:00 +22°C° 0.4 mm 1 mps 677 mmHg 96%
22:00 +22°C° 0.4 mm 1 mps 677 mmHg 96%
23:00 +20°C° 0.4 mm 0 mps 677 mmHg 96%
Show more

We Need Your Consent

Meteoprog and our Service Providers may store and access personal data such as cookies, device identifiers or other similar technologies on your device and process such data to personalise content and ads, as well as provide social media features and to analyse the traffic.

  • Store and/or access information on your device

    Cookies, device identifiers or other information can be stored or accessed on your device for the purposes indicated above.

  • Personalised ads and content, ad and content measurement, audience insights, and products development

    Ads and content can be personalised based on a profile. More data can be added to better personalise ads and content. Ad and content performance can be measured. Insights about the audience who saw the ads and content can be derived. Such data can be used to develop or improve user’s experience, systems and software.

By clicking ‘I Agree’ you will allow the use of indicated cookies, device identifiers, web beacons or other similar technologies. Your settings can be changed in the browser on your device.

For certain purposes, legitimate interests may be relied on, rather than consent. You can read more about this in our Privacy and Cookie Policy.